Regional Weather Roundup
Issued by NWS

Home | Current Version | Previous Version | Text Only | Print | Product List | Glossary On
Versions: 1 2 3 4 5 6 7 8 9 10 11 12 13 14 15 16 17 18 19 20 21 22 23 24 25 26 27 28 29 30 31 32 33 34 35 36 37 38 39 40 41 42 43 44 45 46 47 48 49 50
000
ASUS43 KLMK 210910
RWRKY
KENTUCKY REGIONAL WEATHER ROUNDUP
NATIONAL WEATHER SERVICE LOUISVILLE KY
500 AM EDT SUN SEP 21 2014

NOTE "FAIR" INDICATES FEW OR NO CLOUDS BELOW 12,000 FEET
WITH NO SIGNIFICANT WEATHER AND/OR OBSTRUCTIONS TO VISIBILITY.

KYZ001>023-026-027-061>063-070>075-211000-
WESTERN AND SOUTH CENTRAL KENTUCKY

CITY           SKY/WX    TMP DP  RH WIND       PRES   REMARKS
PADUCAH        CLEAR     74  67  78 SW7       29.93F
HENDERSON      PTCLDY    70  64  83 SW9       29.89F
OWENSBORO      PTCLDY    70  67  90 SW8       29.91F
HOPKINSVILLE   CLEAR     69  69 100 SW9       29.95F
BOWLING GREEN  PTCLDY    69  65  86 SW6       29.95F
GLASGOW        CLEAR     65  65 100 CALM      29.94F
$$

KYZ024-025-028>034-038-045-046-053-211000-
NORTH CENTRAL KENTUCKY

CITY           SKY/WX    TMP DP  RH WIND       PRES   REMARKS
LOUISVILLE/SDF CLOUDY    74  66  76 W14       29.89S
LOUISVILLE/LOU MOCLDY    72  65  78 SW5       29.90S
FORT KNOX      PTCLDY    70  66  87 SW8       29.90F
$$

KYZ035>037-039>044-047>052-055>060-089>105-211000-
NORTHEAST KENTUCKY

CITY           SKY/WX    TMP DP  RH WIND       PRES   REMARKS
LEXINGTON      CLEAR     69  64  84 SW9       29.91F
COVINGTON      CLOUDY    71  64  78 SW10      29.84F
FRANKFORT      PTCLDY    68  64  87 SW7       29.89F
$$

KYZ054-064>069-076>088-106>120-211000-
SOUTHEAST KENTUCKY

CITY           SKY/WX    TMP DP  RH WIND       PRES   REMARKS
JACKSON        CLEAR     65  61  87 CALM      29.95F
LONDON         CLEAR     65  61  87 CALM      29.97F
SOMERSET       CLEAR     63  63 100 CALM      29.97S
MIDDLESBORO    FOG       59  59 100 CALM      30.00F VSB 1
MONTICELLO     SUNNY     60  59  97 CALM      29.98F FOG
$$




USA.gov is the U.S. government's official web portal to all federal, state and local government web resources and services.